Home   Weather   Salalah   Past weeks

Flag for Oman Past Weather in Salalah, Oman — Yesterday and Last 2 Weeks

Now
81 °F

Sunny.


Feels Like: 81 °F
Forecast: 69 / 80 °F
Wind: 9 mph from South

Location: Salalah Airport

Current Time: Feb 22, 2017 at 12:28:38 pm

Latest Report: Feb 22, 2017 at 11:50 am


Visibility: 10 mi

Pressure: 30.01 "Hg

Humidity: 45%

Dew Point: 57 °F

Location of SalalahLocation

Past Weather in Salalah — Graph

°F

Salalah Temperature Yesterday

Maximum temperature yesterday: 84 °F (at 10:50 am)
Minimum temperature yesterday: 73 °F (at 5:50 am)
Average temperature yesterday: 78 °F

High & Low Weather Summary for the Past Weeks

 TemperatureHumidityPressure
High88 °F (Feb 20, 2:50 pm)83% (Feb 13, 11:50 pm)30.18 "Hg (Feb 13, 11:50 pm)
Low66 °F (Feb 9, 2:50 am)13% (Feb 20, 12:50 pm)29.89 "Hg (Feb 11, 2:50 pm)
Average77 °F56%30.02 "Hg
* Reported Feb 7 10:50 am — Feb 22 10:50 am, Salalah, Weather by CustomWeather, © 2017

Note: Actual official high and low records may vary slightly from our data, if they occured in-between our weather recording intervals... More about our weather records

Advertising

Salalah Weather History for the Previous 24 Hours

Scroll right to see more
 ConditionsComfort  
Time TempWeatherWind HumidityBarometerVisibility
10:50 am
Wed, Feb 22
82 °FPassing clouds.7 mph48%30.04 "HgN/A
9:50 am81 °FSunny.2 mph37%30.07 "Hg10 mi
8:50 am77 °FSunny.2 mph32%30.04 "Hg10 mi
7:50 am72 °FSunny.1 mph36%30.04 "Hg10 mi
6:50 am70 °FSunny.1 mph53%30.01 "Hg10 mi
5:50 am70 °FClear.6 mph43%29.98 "Hg10 mi
4:50 am70 °FClear.5 mph53%29.98 "Hg10 mi
3:50 am70 °FClear.3 mph40%29.95 "Hg10 mi
2:50 am72 °FClear.2 mph50%29.95 "Hg10 mi
1:50 am73 °FClear.3 mph57%29.98 "Hg10 mi
12:50 am73 °FClear.2 mph61%29.98 "Hg10 mi
11:50 pm
Tue, Feb 21
75 °FClear.3 mph57%30.01 "Hg10 mi
10:50 pm75 °FClear.1 mph74%30.01 "Hg10 mi
9:50 pm75 °FClear.2 mph74%30.01 "Hg10 mi
8:50 pm77 °FClear.5 mph69%29.98 "Hg10 mi
7:50 pm77 °FClear.5 mph69%29.95 "Hg10 mi
6:50 pm77 °FClear.6 mph65%29.95 "Hg10 mi
5:50 pm79 °FSunny.7 mph61%29.92 "Hg10 mi
4:50 pm79 °FPassing clouds.8 mph54%29.92 "HgN/A
3:50 pm81 °FPassing clouds.10 mph48%29.89 "HgN/A
2:50 pm82 °FPassing clouds.12 mph40%29.92 "HgN/A
1:50 pm82 °FSunny.13 mph35%29.95 "Hg10 mi
12:50 pm82 °FSunny.12 mph28%29.98 "Hg10 mi
Weather by CustomWeather, © 2017

See weather overviewHow to use our weather pages